Regional Weather Roundup
Issued by NWS

Home | Current Version | Previous Version | Graphics & Text | Print | Product List | Glossary On
Versions: 1 2 3 4 5 6 7 8 9 10 11 12 13 14 15 16 17 18 19 20 21 22 23 24 25 26 27 28 29 30 31 32 33 34 35 36 37 38 39 40 41 42 43 44 45 46 47 48 49 50
000
ASUS43 KOAX 241110
RWRNE

WEATHER ROUNDUP FOR NEBRASKA
NATIONAL WEATHER SERVICE OMAHA NE
600 AM CDT THU APR 24 2014

NOTES: SATELLITE DATA IS BEING USED TO AUGMENT CLOUD COVER ABOVE
       12000 FEET.
       "FAIR" INDICATES FEW OR NO CLOUDS BELOW 12,000 FEET WITH NO
       SIGNIFICANT WEATHER AND/OR OBSTRUCTIONS TO VISIBILITY.

  * THESE STATIONS DO NOT REPORT WEATHER SUCH AS RAIN...SNOW OR FOG.

NEZ001>004-019>022-054>056-241200-
NEBRASKA PANHANDLE

CITY           SKY/WX    TMP DP  RH WIND       PRES   REMARKS
SCOTTSBLUFF    CLEAR     36  28  73 W10       29.94R WCI  28
ALLIANCE       CLEAR     32  28  85 W10       29.90R WCI  24
CHADRON        CLEAR     37  30  75 W6        29.90R WCI  32
KIMBALL        CLEAR     35  12  38 W10       29.94S WCI  28
SIDNEY         PTCLDY    35  29  78 W8        29.93S WCI  29
$$

NEZ057>060-069>072-079>082-241200-
SOUTHWEST NEBRASKA

CITY           SKY/WX    TMP DP  RH WIND       PRES   REMARKS
NORTH PLATTE   CLOUDY    47  34  60 NW10      29.83R
IMPERIAL       CLOUDY    47  36  65 NW14      29.87R
LEXINGTON      CLOUDY    52  38  60 NW12      29.79R
MCCOOK         CLOUDY    53  35  50 N13       29.81S
OGALLALA       CLOUDY    44  34  68 NW7       29.88R
$$

NEZ005>010-023>029-035>040-094-241200-
NORTH CENTRAL NEBRASKA

CITY           SKY/WX    TMP DP  RH WIND       PRES   REMARKS
VALENTINE      CLEAR     43  33  68 NW13      29.81R
AINSWORTH      MOCLDY    47  35  63 NW10      29.78R
BROKEN BOW     CLOUDY    50  34  54 NW13      29.76R
O`NEILL        CLOUDY    52  34  51 NW14      29.72R
ORD            CLOUDY    50  41  71 NW10      29.72R
THEDFORD       MOCLDY    47  34  59 NW9       29.82R
$$

NEZ041-046>049-061>064-073>077-083>087-241200-
SOUTH CENTRAL NEBRASKA

CITY           SKY/WX    TMP DP  RH WIND       PRES   REMARKS
GRAND ISLAND   LGT RAIN  51  44  77 NW14      29.72R
AURORA         LGT RAIN  51  50  97 N10       29.70S
HASTINGS       LGT RAIN  50  44  80 N15       29.71S
HEBRON         LGT RAIN  52  50  93 N18G28    29.64F
HOLDREGE       CLOUDY    50  43  74 NW15      29.76R
KEARNEY *      CLOUDY    50  45  81 NW10      29.75R
YORK           LGT RAIN  50  50 100 N8        29.69R
$$

NEZ011>018-030>034-042>045-241200-
NORTHEAST NEBRASKA

CITY           SKY/WX    TMP DP  RH WIND       PRES   REMARKS
NORFOLK        CLOUDY    51  46  83 NW14      29.66S
ALBION         CLOUDY    49  45  85 N9        29.68S
BLAIR          RAIN      47  45  90 NW5       29.62S
COLUMBUS *     CLOUDY    52  46  82 NW8       29.68R
FREMONT        RAIN      49  47  96 NW5       29.65R
TEKAMAH        LGT RAIN  49  46  90 NW6       29.63F
$$

NEZ050>053-065>068-078-088>093-241200-
SOUTHEAST NEBRASKA

CITY           SKY/WX    TMP DP  RH WIND       PRES   REMARKS
LINCOLN        RAIN      52  49  89 SW3       29.70R FOG
OMAHA EPPLEY   CLOUDY    49  45  86 N6        29.62F
BEATRICE       TSTM      52  50  95 N5        29.66F
FALLS CITY     CLOUDY    54  48  80 SE5       29.59F
NEBRASKA CITY  RAIN      51  51 100 NW9       29.62R
PLATTSMOUTH    RAIN      49  47  90 N6        29.62R
$$

NEZ044-045-051>053-067-241200-
OMAHA AREA

CITY           SKY/WX    TMP DP  RH WIND       PRES   REMARKS
OMAHA EPPLEY   CLOUDY    49  45  86 N6        29.62F
BLAIR          RAIN      47  45  90 NW5       29.62S
FREMONT        RAIN      49  47  96 NW5       29.65R
MILLARD        CLOUDY    49  46  90 NW6       29.64R
OFFUTT AFB     LGT RAIN  50  50 100 CALM      29.64R
PLATTSMOUTH    RAIN      49  47  90 N6        29.62R
WAHOO          RAIN      49  47  91 NW8       29.66R
$$



USA.gov is the U.S. government's official web portal to all federal, state and local government web resources and services.